Wind_Speed
53 52 52 52 53 54 55 53 51 47 45 42 39 37 36 35 35 35 36 36 36 36 36 36 36 36 35 35 35 35 35 35 35 35 35 34 34 34 35 35 35 35 35 36
52 50 50 53 52 51 52 51 50 48 45 41 40 41 39 38 37 36 35 35 35 36 36 35 35 35 35 35 35 34 34 34 34 34 34 34 34 34 34 34 34 35 35 35
51 51 52 54 51 50 49 48 48 48 43 42 41 40 39 39 38 37 36 35 35 35 34 35 35 35 35 34 34 34 33 33 33 33 33 33 32 32 33 33 34 34 34 35
48 50 54 52 49 49 48 47 47 45 44 44 42 40 41 40 39 37 36 36 36 35 35 35 35 35 35 34 34 33 32 32 32 32 32 32 32 32 33 33 33 33 34 35
45 49 51 50 48 46 47 46 45 45 44 44 44 44 43 41 40 38 37 37 37 37 37 36 35 34 34 34 33 33 32 32 31 32 32 32 32 32 33 33 33 34 34 35
41 44 47 45 44 44 45 45 43 43 43 43 45 46 41 40 40 38 38 38 38 38 37 36 35 34 33 33 33 32 31 31 31 31 31 31 31 31 32 32 33 33 34 35
42 42 43 41 42 43 45 42 40 43 43 43 44 42 39 40 40 39 39 38 38 37 36 35 34 33 33 32 32 32 32 31 30 30 30 31 31 31 32 32 32 33 34 36
42 43 40 38 39 41 39 39 40 41 43 43 42 42 41 41 41 40 39 38 38 36 35 34 33 33 32 32 32 32 32 31 30 30 31 31 31 31 32 32 32 33 34 36
42 40 37 38 37 38 38 38 39 40 41 42 42 42 42 41 40 39 38 38 37 36 35 34 34 32 32 31 31 31 31 31 31 30 30 30 31 31 31 32 33 34 35 36
40 39 38 37 36 38 38 37 37 37 38 39 40 41 41 41 39 39 38 37 37 36 35 34 33 32 31 31 31 30 30 30 30 30 30 30 30 31 31 32 33 34 35 36
40 39 39 39 37 37 36 37 37 37 37 37 38 39 40 40 38 37 37 37 36 35 34 33 33 32 31 31 30 30 30 30 29 29 30 30 30 31 32 32 33 34 35 37
37 37 38 38 37 36 35 34 35 36 35 35 36 37 39 38 37 37 36 35 34 34 33 32 31 31 31 30 30 30 30 29 29 29 29 30 31 31 32 33 33 35 36 38
37 38 38 38 37 36 34 33 34 35 34 34 35 36 37 37 36 35 35 34 33 33 32 32 32 31 30 30 30 29 29 29 29 29 29 30 31 31 32 33 34 35 37 38
37 38 38 37 37 36 34 33 34 34 33 33 34 35 35 35 34 34 34 34 33 32 32 31 31 31 30 30 29 29 29 29 29 29 30 31 31 32 33 34 35 36 37 39
36 36 35 35 36 36 34 33 33 33 33 33 33 32 32 32 33 33 33 33 33 32 32 31 30 30 30 30 29 29 29 29 29 29 30 30 31 32 33 34 35 36 38 40
35 36 34 34 35 36 35 34 34 34 33 31 31 31 31 31 32 32 32 32 32 31 31 31 31 30 30 30 29 29 28 29 29 29 30 30 31 32 33 34 35 37 39 40
33 33 33 34 35 35 35 34 35 35 34 32 31 30 30 29 30 31 31 31 31 31 30 30 30 30 29 29 28 28 28 28 28 29 29 30 31 32 33 35 36 38 39 41
33 33 33 34 35 35 34 34 34 33 32 32 32 32 30 30 29 29 30 30 30 29 29 29 29 28 28 27 27 27 27 27 28 28 29 30 31 33 34 35 37 38 40 42
34 33 33 33 33 33 33 33 32 32 31 31 30 30 29 28 28 28 28 29 28 28 28 27 27 27 26 26 26 26 27 27 28 29 30 31 32 33 34 36 37 39 41 43
34 33 32 32 31 31 32 32 31 32 31 30 29 29 28 27 27 27 28 28 28 27 27 26 26 26 26 25 26 26 27 28 29 30 31 31 32 34 35 37 39 41 42 44
33 33 32 31 31 30 31 31 30 30 30 29 29 28 27 27 27 27 27 27 27 26 26 25 25 25 25 25 26 27 28 28 29 30 31 32 33 34 36 38 40 42 43 45
31 31 31 31 31 30 30 30 30 30 29 29 29 28 27 27 27 27 26 26 26 26 26 25 25 25 26 27 27 28 28 29 29 30 31 33 34 36 37 39 41 43 45 47
28 28 29 30 31 30 30 29 29 29 29 29 29 28 27 27 27 27 26 26 27 26 26 26 26 27 27 28 28 28 29 29 30 31 33 34 36 37 39 40 42 44 46 48
27 26 27 29 31 31 30 29 29 29 29 29 29 28 28 27 26 26 26 26 26 26 26 26 26 27 27 28 28 29 29 30 32 33 35 36 37 39 40 42 43 45 47 49
26 26 26 28 29 30 29 29 28 28 27 27 27 27 27 26 26 26 26 26 26 26 26 27 27 28 28 29 29 30 31 32 33 34 35 37 38 40 41 43 45 47 48 49
26 26 26 27 28 29 29 28 28 28 28 28 28 28 27 27 27 27 27 27 27 27 27 28 28 28 29 29 30 31 32 33 34 36 37 38 40 41 43 45 47 48 49 49
26 26 26 25 26 27 27 26 26 26 27 28 28 27 27 27 28 28 27 27 27 27 27 28 28 29 29 30 31 32 33 34 36 37 38 40 41 43 45 47 48 48 48 49
Wind_Direction
225 225 225 224 224 224 226 228 230 228 228 225 228 229 229 229 230 231 232 233 236 238 241 243 246 247 249 250 252 254 256 258 260 261 263 265 267 269 272 274 276 278 279 281
226 226 227 225 223 225 226 227 229 228 226 225 228 229 229 229 231 232 232 233 235 237 240 242 244 246 248 250 251 253 256 258 260 262 263 265 267 270 272 274 276 278 280 281
228 228 229 226 222 225 226 226 228 228 225 226 227 228 230 231 232 232 232 233 234 236 238 240 241 244 246 249 251 253 256 258 260 262 263 266 268 270 273 275 277 278 280 282
230 229 231 225 224 226 227 225 227 227 225 226 227 227 228 229 230 230 231 231 232 235 237 238 240 243 246 248 251 253 256 258 260 262 264 266 269 272 273 275 277 279 281 283
228 230 230 223 223 225 227 225 224 226 225 225 226 227 227 227 229 230 230 231 232 234 236 238 240 242 245 248 252 254 256 258 261 263 265 267 269 271 274 276 278 280 282 284
225 228 227 221 222 224 226 224 222 224 224 225 226 228 226 227 229 231 231 231 232 233 235 237 240 243 246 249 252 254 256 258 261 264 266 267 269 272 274 276 278 280 283 285
225 228 226 220 221 223 225 221 222 225 225 226 228 228 225 226 228 229 230 230 231 232 234 237 241 244 246 249 252 254 257 259 262 264 266 268 271 273 276 278 280 282 284 287
223 226 224 219 221 221 221 220 222 223 224 225 226 225 224 225 227 228 229 230 231 232 234 238 241 244 246 249 252 254 257 260 262 264 267 269 272 274 277 278 280 283 286 288
222 223 220 219 218 215 216 219 221 223 223 224 224 224 223 224 226 228 228 229 231 233 235 238 241 244 246 248 251 254 257 260 262 264 267 270 273 275 277 279 282 284 287 289
219 217 219 218 217 216 217 219 221 221 220 222 223 223 223 223 224 225 226 228 231 233 236 238 241 243 245 248 251 253 256 259 262 265 268 271 273 275 278 281 283 286 288 291
218 217 218 216 216 215 216 219 221 219 218 218 220 220 221 222 224 225 226 228 231 233 235 237 240 242 245 247 250 253 257 259 262 265 269 271 274 276 279 281 285 287 290 293
214 214 216 212 213 216 217 218 219 219 218 217 219 220 220 222 224 225 227 229 230 232 234 237 239 242 244 248 251 254 257 260 263 266 269 272 275 277 280 283 286 289 292 294
212 213 213 209 211 214 214 215 216 216 215 216 218 220 221 222 224 226 227 229 230 231 234 237 239 242 244 248 252 254 257 260 264 267 270 273 275 278 282 285 288 290 293 296
212 212 209 208 211 212 213 214 214 215 216 215 217 219 221 222 223 225 228 229 229 231 234 237 239 242 245 249 252 255 257 261 264 268 271 274 277 280 283 286 289 292 294 297
210 209 208 209 210 212 213 212 212 213 215 215 217 219 220 220 221 223 225 227 229 230 233 236 239 242 246 249 252 255 258 262 265 270 273 276 279 282 285 288 291 294 296 299
209 208 207 208 207 209 212 211 210 210 212 213 216 218 219 220 220 222 224 226 227 229 232 236 240 243 247 249 252 256 260 263 267 271 274 277 281 284 287 290 293 296 298 301
206 205 205 206 206 207 207 208 208 209 211 213 215 217 219 221 222 223 223 224 226 229 233 236 239 243 246 249 253 257 261 265 268 272 276 279 283 286 289 292 295 297 300 302
202 202 202 201 202 203 205 206 207 208 211 214 216 218 219 220 220 222 224 226 228 231 234 237 240 243 245 250 254 258 262 266 270 275 278 282 285 289 291 294 296 299 301 303
199 200 200 200 202 204 204 205 206 208 211 213 214 215 215 217 219 223 226 228 230 232 235 237 240 243 248 252 256 261 265 269 273 276 280 284 288 290 293 296 298 301 303 305
199 200 199 199 200 203 205 206 207 209 211 214 216 218 216 219 223 227 229 230 231 233 235 239 243 247 250 255 260 264 268 272 276 279 283 286 289 292 295 297 300 302 304 306
198 199 200 199 199 201 205 208 210 212 214 217 219 221 221 223 225 227 230 232 234 236 239 243 247 251 255 259 264 268 272 275 279 282 285 288 291 294 296 299 301 303 305 307
197 200 202 202 201 202 206 210 213 215 216 217 219 222 224 226 227 229 231 234 237 239 242 246 250 254 259 264 268 272 275 278 281 284 287 290 293 295 297 299 301 303 306 308
198 200 203 205 205 207 210 212 212 214 216 218 219 222 224 227 230 232 235 237 240 242 245 249 254 259 264 267 270 274 277 279 283 286 288 291 294 296 298 300 302 304 307 309
198 200 202 205 207 209 211 212 213 215 217 220 220 222 225 227 230 233 235 238 241 245 249 253 258 262 265 268 272 275 278 281 284 287 290 292 294 297 299 301 304 306 308 309
199 198 200 204 207 209 210 212 215 217 219 220 221 222 225 228 231 234 237 240 244 248 252 256 260 263 267 271 274 277 280 283 286 288 291 293 296 298 301 303 305 307 308 308
200 200 201 204 206 209 212 214 216 217 219 221 224 226 227 230 233 236 240 244 248 252 255 258 261 265 268 272 276 279 282 285 287 290 293 295 298 300 301 303 305 306 307 308
200 201 203 205 208 210 212 213 215 217 220 222 224 226 229 233 236 239 243 247 250 253 256 260 264 267 271 274 277 280 283 286 289 292 294 296 298 300 302 304 305 306 307 307
Height
5504 5512 5519 5527 5535 5542 5548 5557 5567 5580 5589 5600 5606 5613 5618 5623 5628 5633 5637 5642 5646 5649 5653 5656 5659 5662 5665 5668 5670 5672 5674 5675 5677 5677 5678 5679 5679 5679 5679 5679 5678 5677 5676 5675
5495 5502 5508 5515 5525 5533 5541 5551 5560 5570 5580 5592 5597 5602 5608 5614 5619 5624 5629 5633 5637 5640 5644 5647 5650 5653 5656 5659 5661 5663 5665 5666 5668 5669 5669 5670 5670 5670 5670 5670 5669 5669 5668 5666
5486 5493 5496 5504 5517 5526 5535 5544 5553 5561 5576 5583 5587 5593 5600 5605 5610 5615 5620 5624 5628 5632 5635 5639 5642 5645 5647 5650 5652 5654 5656 5658 5659 5660 5661 5661 5662 5662 5662 5661 5661 5660 5659 5657
5477 5484 5487 5504 5514 5520 5528 5537 5546 5554 5564 5571 5577 5583 5588 5594 5600 5605 5610 5615 5619 5623 5627 5630 5633 5636 5639 5641 5644 5646 5648 5649 5650 5651 5652 5653 5653 5654 5653 5653 5652 5651 5650 5648
5469 5474 5481 5496 5506 5513 5520 5528 5538 5545 5554 5560 5566 5570 5577 5585 5591 5597 5602 5606 5610 5614 5618 5621 5625 5628 5631 5633 5635 5637 5639 5641 5642 5643 5644 5644 5645 5645 5644 5644 5643 5642 5641 5639
5462 5467 5475 5492 5500 5505 5510 5518 5530 5536 5543 5549 5554 5560 5571 5577 5582 5587 5592 5596 5601 5605 5609 5613 5617 5620 5623 5625 5627 5629 5631 5632 5634 5635 5635 5636 5636 5636 5636 5635 5634 5633 5632 5630
5455 5460 5470 5483 5490 5494 5502 5515 5522 5526 5533 5538 5544 5554 5563 5566 5572 5577 5582 5587 5592 5596 5601 5605 5609 5612 5615 5617 5619 5621 5622 5624 5625 5626 5627 5627 5627 5627 5627 5626 5625 5624 5623 5621
5448 5454 5467 5476 5481 5488 5498 5507 5511 5517 5522 5529 5536 5544 5550 5556 5562 5567 5573 5579 5583 5588 5593 5597 5601 5604 5606 5609 5611 5612 5614 5616 5617 5618 5618 5619 5619 5619 5618 5618 5617 5616 5614 5612
5443 5453 5461 5467 5474 5482 5489 5495 5500 5506 5513 5519 5526 5533 5540 5546 5553 5559 5565 5570 5575 5580 5584 5589 5592 5596 5598 5601 5602 5604 5606 5608 5609 5609 5610 5610 5610 5610 5610 5609 5608 5607 5605 5603
5436 5445 5452 5459 5465 5473 5480 5486 5491 5498 5504 5511 5517 5524 5531 5538 5544 5550 5557 5562 5567 5572 5576 5581 5584 5588 5590 5592 5594 5596 5598 5599 5600 5601 5602 5602 5602 5602 5601 5601 5599 5598 5596 5593
5429 5438 5444 5452 5458 5465 5471 5477 5484 5490 5497 5503 5509 5516 5524 5530 5537 5542 5548 5554 5559 5564 5568 5573 5576 5579 5582 5584 5587 5588 5590 5591 5592 5593 5594 5594 5594 5593 5593 5592 5590 5588 5586 5584
5423 5431 5436 5444 5451 5458 5464 5471 5478 5484 5490 5496 5502 5509 5516 5523 5529 5535 5541 5546 5551 5556 5560 5564 5568 5571 5574 5577 5579 5581 5582 5583 5584 5585 5585 5585 5585 5585 5583 5583 5581 5579 5577 5574
5416 5422 5429 5437 5444 5451 5458 5465 5471 5477 5483 5490 5496 5503 5509 5516 5522 5528 5534 5539 5543 5548 5552 5556 5560 5563 5566 5569 5571 5573 5574 5575 5576 5577 5577 5577 5576 5576 5575 5573 5571 5569 5567 5564
5409 5415 5423 5431 5438 5445 5452 5459 5465 5471 5478 5484 5490 5496 5503 5509 5515 5521 5526 5531 5536 5540 5545 5548 5552 5555 5558 5560 5563 5564 5566 5567 5568 5568 5568 5568 5568 5567 5566 5564 5562 5560 5557 5553
5404 5410 5418 5425 5433 5440 5446 5453 5460 5466 5473 5478 5485 5491 5497 5502 5508 5514 5519 5523 5528 5533 5537 5541 5544 5547 5550 5552 5554 5556 5557 5559 5559 5560 5560 5559 5559 5558 5556 5555 5553 5550 5547 5543
5398 5405 5412 5420 5427 5434 5441 5448 5455 5461 5467 5473 5479 5485 5491 5496 5501 5506 5511 5516 5521 5525 5529 5533 5537 5539 5542 5544 5546 5548 5549 5550 5551 5551 5551 5550 5550 5548 5547 5545 5543 5540 5537 5533
5394 5401 5409 5416 5423 5430 5436 5443 5450 5456 5462 5468 5474 5479 5485 5490 5495 5500 5505 5509 5514 5518 5522 5526 5529 5531 5534 5536 5538 5540 5541 5542 5542 5542 5542 5541 5540 5539 5537 5535 5533 5530 5526 5522
5391 5398 5405 5412 5419 5425 5432 5438 5445 5451 5457 5463 5469 5474 5479 5484 5489 5494 5498 5503 5507 5511 5515 5518 5521 5524 5526 5528 5530 5531 5532 5533 5534 5533 5533 5532 5531 5529 5527 5525 5522 5519 5516 5511
5387 5394 5401 5408 5414 5421 5428 5434 5440 5447 5452 5458 5463 5469 5473 5478 5483 5488 5492 5497 5501 5505 5508 5511 5514 5517 5519 5520 5522 5523 5524 5525 5525 5525 5524 5523 5521 5520 5517 5515 5512 5509 5505 5501
5384 5391 5398 5405 5411 5418 5424 5430 5436 5442 5447 5453 5458 5464 5468 5473 5478 5483 5487 5491 5495 5498 5501 5504 5507 5509 5511 5513 5514 5515 5516 5516 5516 5515 5515 5513 5512 5510 5507 5505 5501 5498 5494 5489
5381 5388 5395 5401 5408 5414 5420 5426 5432 5437 5443 5448 5454 5459 5463 5468 5473 5477 5481 5485 5489 5492 5495 5497 5500 5502 5503 5505 5506 5507 5507 5507 5507 5506 5505 5504 5502 5500 5497 5494 5491 5487 5483 5478
5379 5385 5392 5398 5404 5410 5416 5422 5427 5433 5438 5443 5449 5453 5458 5462 5467 5471 5475 5479 5482 5485 5488 5490 5492 5494 5496 5497 5498 5498 5498 5498 5498 5497 5495 5494 5492 5489 5487 5483 5480 5476 5471 5466
5376 5382 5388 5394 5400 5406 5412 5417 5423 5428 5433 5438 5443 5448 5452 5457 5461 5465 5469 5472 5475 5478 5481 5483 5485 5486 5488 5489 5489 5489 5489 5489 5488 5487 5485 5483 5481 5479 5476 5472 5468 5464 5459 5454
5373 5379 5384 5390 5396 5402 5407 5413 5418 5423 5428 5433 5438 5442 5447 5451 5455 5459 5462 5465 5468 5471 5473 5475 5477 5478 5479 5480 5480 5480 5480 5479 5478 5477 5475 5473 5471 5468 5464 5461 5457 5452 5447 5441
5370 5375 5381 5387 5392 5398 5403 5408 5413 5419 5423 5428 5433 5437 5441 5445 5449 5452 5455 5458 5461 5464 5466 5467 5469 5470 5471 5471 5471 5471 5470 5469 5468 5466 5464 5462 5459 5456 5453 5449 5444 5439 5434 5428
5367 5373 5378 5384 5389 5394 5399 5404 5409 5414 5418 5423 5427 5431 5435 5439 5442 5446 5448 5451 5454 5456 5458 5459 5460 5461 5462 5462 5461 5461 5460 5459 5458 5456 5453 5451 5448 5444 5441 5436 5432 5426 5421 5415
5364 5370 5375 5380 5385 5390 5395 5400 5404 5409 5413 5417 5421 5425 5428 5432 5435 5438 5441 5444 5446 5448 5449 5451 5452 5452 5452 5452 5452 5451 5450 5448 5447 5445 5442 5439 5436 5432 5428 5423 5418 5413 5408 5402